Weather History for Big Bear City, CA

Change the Weather History Date:

Monday, February 25, 2013

  Actual Average (KBUO) Record (KBUO)
Temperature  
Mean Temperature 29 °F -  
Max Temperature 46 °F 58 °F 68 °F (1997)
Min Temperature 12 °F 39 °F 33 °F (1997)
Degree Days  
Heating Degree Days 36    
Moisture  
Dew Point 6 °F    
Average Humidity 39    
Maximum Humidity 67    
Minimum Humidity 18    
Precipitation  
Precipitation 0.00 in - - ()
Sea Level Pressure  
Sea Level Pressure 30.15 in    
Wind  
Wind Speed 2 mph (WSW)    
Max Wind Speed 13 mph    
Max Gust Speed 18 mph    
Visibility 10 miles    
Events      
Averages and records for this station are not official NWS values.
T = Trace of Precipitation, MM = Missing Value Source: NWS Daily Summary

Daily Weather History Graph

Daily Weather History Graph

Search for Another Location

Airport:

Trip Planner

Search our weather history database for the weather conditions in past years. The results will help you decide how hot, cold, wet, or windy it might be!

Date:

Astronomy

Feb. 25, 2013 Rise Set
Actual Time 6:20 AM PST 5:40 PM PST
Civil Twilight 5:55 AM PST 6:05 PM PST
Nautical Twilight 5:26 AM PST 6:34 PM PST
Astronomical Twilight 4:57 AM PST 7:03 PM PST
Moon 5:55 PM PST (2/25) 5:55 AM PST (2/25)
Length of Visible Light 12h 10m
Length of Day
11h 19m
Full, 100% of the Moon is Illuminated
Feb 25
Full
Feb 25
Full
Mar 4
Last Quarter
Mar 11
New
Mar 19
First Quarter

Hourly Weather History & Observations

Time (PST) Temp. Windchill Dew Point Humidity Pressure Visibility Wind Dir Wind Speed Gust Speed Precip Events Conditions
12:15 AM 17.6 °F - 1.4 °F 49% 30.20 in 10.0 mi Calm Calm - N/A   Clear
12:35 AM 17.6 °F - 1.4 °F 49% 30.20 in 10.0 mi Calm Calm - N/A   Clear
12:55 AM 17.6 °F - 1.4 °F 49% 30.19 in 10.0 mi Calm Calm - N/A   Clear
1:15 AM 17.6 °F - 3.2 °F 53% 30.19 in 10.0 mi Calm Calm - N/A   Clear
1:35 AM 15.8 °F - 3.2 °F 58% 30.20 in 10.0 mi Calm Calm - N/A   Clear
1:55 AM 15.8 °F - 3.2 °F 58% 30.20 in 10.0 mi Calm Calm - N/A   Clear
2:15 AM 15.8 °F - 3.2 °F 58% 30.19 in 10.0 mi Calm Calm - N/A   Clear
2:35 AM 14.0 °F - 1.4 °F 57% 30.19 in 10.0 mi Calm Calm - N/A   Clear
2:55 AM 14.0 °F - 1.4 °F 57% 30.19 in 10.0 mi Calm Calm - N/A   Clear
3:15 AM 14.0 °F - 1.4 °F 57% 30.18 in 10.0 mi Calm Calm - N/A   Clear
3:35 AM 14.0 °F - 1.4 °F 57% 30.17 in 10.0 mi Calm Calm - N/A   Clear
3:55 AM 14.0 °F - 1.4 °F 57% 30.18 in 10.0 mi Calm Calm - N/A   Clear
4:15 AM 14.0 °F - 1.4 °F 57% 30.18 in 10.0 mi Calm Calm - N/A   Clear
4:35 AM 14.0 °F - 1.4 °F 57% 30.19 in 10.0 mi Calm Calm - N/A   Clear
4:55 AM 14.0 °F - 1.4 °F 57% 30.20 in 10.0 mi Calm Calm - N/A   Clear
5:15 AM 14.0 °F - 1.4 °F 57% 30.20 in 10.0 mi Calm Calm - N/A   Clear
5:35 AM 14.0 °F - 1.4 °F 57% 30.20 in 10.0 mi Calm Calm - N/A   Clear
5:55 AM 12.2 °F - 1.4 °F 62% 30.20 in 10.0 mi Calm Calm - N/A   Clear
6:15 AM 14.0 °F - 3.2 °F 62% 30.20 in 10.0 mi Calm Calm - N/A   Clear
6:35 AM 12.2 °F - 3.2 °F 67% 30.21 in 10.0 mi Calm Calm - N/A   Clear
6:55 AM 14.0 °F - 3.2 °F 62% 30.21 in 10.0 mi Calm Calm - N/A   Clear
7:15 AM 17.6 °F - 5.0 °F 58% 30.21 in 10.0 mi Calm Calm - N/A   Clear
7:35 AM 21.2 °F - 6.8 °F 54% 30.21 in 10.0 mi Calm Calm - N/A   Clear
7:55 AM 23.0 °F - 8.6 °F 54% 30.22 in 10.0 mi Calm Calm - N/A   Clear
8:15 AM 28.4 °F - 6.8 °F 40% 30.21 in 10.0 mi Calm Calm - N/A   Clear
8:35 AM 32.0 °F 28.7 °F 5.0 °F 32% 30.21 in 10.0 mi West 3.5 mph - N/A   Clear
8:55 AM 33.8 °F 30.8 °F 5.0 °F 30% 30.20 in 10.0 mi West 3.5 mph - N/A   Clear
9:15 AM 35.6 °F 31.7 °F 5.0 °F 28% 30.19 in 10.0 mi West 4.6 mph - N/A   Clear
9:35 AM 41.0 °F 36.4 °F 5.0 °F 23% 30.19 in 10.0 mi West 6.9 mph - N/A   Clear
9:55 AM 42.8 °F 38.6 °F 6.8 °F 23% 30.19 in 10.0 mi West 6.9 mph - N/A   Clear
10:15 AM 42.8 °F 38.0 °F 5.0 °F 21% 30.18 in 10.0 mi West 8.1 mph - N/A   Clear
10:35 AM 44.6 °F 40.2 °F 6.8 °F 21% 30.17 in 10.0 mi West 8.1 mph - N/A   Clear
10:55 AM 46.4 °F 43.5 °F 8.6 °F 22% 30.17 in 10.0 mi WSW 5.8 mph - N/A   Clear
11:15 AM 46.4 °F 42.9 °F 5.0 °F 18% 30.17 in 10.0 mi WSW 6.9 mph - N/A   Clear
11:35 AM 46.4 °F 42.4 °F 5.0 °F 18% 30.16 in 10.0 mi WSW 8.1 mph - N/A   Clear
11:55 AM 46.4 °F 41.1 °F 8.6 °F 22% 30.16 in 10.0 mi West 11.5 mph - N/A   Clear
12:15 PM 46.4 °F 41.1 °F 8.6 °F 22% 30.15 in 10.0 mi WSW 11.5 mph 17.3 mph N/A   Clear
12:35 PM 46.4 °F 40.7 °F 8.6 °F 22% 30.14 in 10.0 mi West 12.7 mph 17.3 mph N/A   Clear
12:55 PM 46.4 °F 42.4 °F 8.6 °F 22% 30.14 in 10.0 mi WSW 8.1 mph - N/A   Clear
1:15 PM 44.6 °F 40.2 °F 8.6 °F 23% 30.14 in 10.0 mi WSW 8.1 mph 18.4 mph N/A   Clear
1:35 PM 44.6 °F 39.7 °F 8.6 °F 23% 30.14 in 10.0 mi WSW 9.2 mph 18.4 mph N/A   Clear
1:55 PM 44.6 °F 39.2 °F 10.4 °F 25% 30.14 in 10.0 mi West 10.4 mph 16.1 mph N/A   Clear
2:15 PM 44.6 °F 39.2 °F 8.6 °F 23% 30.13 in 10.0 mi WSW 10.4 mph - N/A   Clear
2:35 PM 46.4 °F 42.4 °F 10.4 °F 23% 30.13 in 10.0 mi WSW 8.1 mph - N/A   Clear
2:55 PM 44.6 °F 39.2 °F 10.4 °F 25% 30.13 in 10.0 mi West 10.4 mph 17.3 mph N/A   Clear
3:15 PM 44.6 °F 38.8 °F 10.4 °F 25% 30.12 in 10.0 mi West 11.5 mph - N/A   Clear
3:35 PM 44.6 °F 40.2 °F 8.6 °F 23% 30.12 in 10.0 mi WSW 8.1 mph - N/A   Clear
3:55 PM 44.6 °F 40.2 °F 6.8 °F 21% 30.11 in 10.0 mi SW 8.1 mph - N/A   Clear
4:15 PM 44.6 °F 41.4 °F 5.0 °F 20% 30.10 in 10.0 mi WSW 5.8 mph - N/A   Clear
4:35 PM 44.6 °F 41.4 °F 8.6 °F 23% 30.09 in 10.0 mi WSW 5.8 mph - N/A   Clear
4:55 PM 42.8 °F 38.6 °F 8.6 °F 25% 30.10 in 10.0 mi SW 6.9 mph - N/A   Clear
5:15 PM 41.0 °F 38.0 °F 14.0 °F 33% 30.09 in 10.0 mi West 4.6 mph - N/A   Clear
5:35 PM 37.4 °F 32.1 °F 15.8 °F 41% 30.10 in 10.0 mi West 6.9 mph - N/A   Clear
5:55 PM 37.4 °F 34.9 °F 10.4 °F 33% 30.09 in 10.0 mi SW 3.5 mph - N/A   Clear
6:15 PM 35.6 °F 31.7 °F 8.6 °F 33% 30.09 in 10.0 mi West 4.6 mph - N/A   Clear
6:35 PM 35.6 °F - 10.4 °F 35% 30.09 in 10.0 mi Calm Calm - N/A   Clear
6:55 PM 32.0 °F - 12.2 °F 44% 30.09 in 10.0 mi Calm Calm - N/A   Clear
7:15 PM 33.8 °F 29.6 °F 8.6 °F 35% 30.10 in 10.0 mi WSW 4.6 mph - N/A   Clear
7:35 PM 32.0 °F - 12.2 °F 44% 30.11 in 10.0 mi Calm Calm - N/A   Clear
7:55 PM 30.2 °F - 12.2 °F 47% 30.11 in 10.0 mi Calm Calm - N/A   Clear
8:15 PM 30.2 °F 25.4 °F 12.2 °F 47% 30.11 in 10.0 mi WNW 4.6 mph - N/A   Clear
8:35 PM 30.2 °F - 12.2 °F 47% 30.10 in 10.0 mi Calm Calm - N/A   Clear
8:55 PM 28.4 °F - 12.2 °F 51% 30.10 in 10.0 mi Calm Calm - N/A   Clear
9:15 PM 28.4 °F - 12.2 °F 51% 30.09 in 10.0 mi Calm Calm - N/A   Clear
9:35 PM 28.4 °F 23.3 °F 8.6 °F 43% 30.09 in 10.0 mi West 4.6 mph - N/A   Clear
9:55 PM 32.0 °F 27.5 °F 3.2 °F 30% 30.10 in 10.0 mi WSW 4.6 mph - N/A   Clear
10:15 PM 30.2 °F 24.3 °F 5.0 °F 34% 30.10 in 10.0 mi West 5.8 mph - N/A   Clear
10:35 PM 32.0 °F 28.7 °F 3.2 °F 30% 30.10 in 10.0 mi West 3.5 mph - N/A   Clear
10:55 PM 30.2 °F - 5.0 °F 34% 30.10 in 10.0 mi Calm Calm - N/A   Clear
11:15 PM 28.4 °F - 5.0 °F 37% 30.10 in 10.0 mi Calm Calm - N/A   Clear
11:35 PM 28.4 °F - 5.0 °F 37% 30.10 in 10.0 mi Calm Calm - N/A   Clear
11:55 PM 26.6 °F - 8.6 °F 47% 30.10 in 10.0 mi Calm Calm - N/A   Clear